STARLINK-30253 (57525 NORAD) Tracking and Keplerian Element Data

This shows tracking and keplerian element data for the satellite.

Feedback or suggestion? Click here.




ElementValue
Catalog57525
NameSTARLINK-30253
Epoch Orbit2395
Epoch Day12.85608657
Epoch Year2024
RAAN320.206
Inclination43.002
Eccentricity9.28E-05
Argument of Perigee222.9539
Mean Anonmoly137.1231
Mean Motion15.02532623
Decay Rate1.03E-05
L11 57525U 23115E 24012.85608657 .00001030 00000+0 91331-4 0 9994
L22 57525 43.0020 320.2060 0000928 222.9539 137.1231 15.02532623 23955



Live tracking and technical data element details for STARLINK-30253 (NORAD 57525). STARLINK-30253 can be tracked NOW for your location showing map with azimuth and elevation plus other details from your city location.







IsCatalogInMostPopularTable: catalog: 57525, numindb: 21
Update: records affected: 1



GetName: 57525 STARLINK-30253

Hit Count: updated at: Thu, 29 Feb 2024 11:20:12 GMT